Skip Page Navigation
NASA JPL Caltech
NASA Logo - Jet Propulsion Laboratory + View the NASA Portal
+ Center for Near-Earth Object Studies
JPL Home Earth Solar System Stars & Galaxies Technology
JPL Solar System Dynamics
BODIES ORBITS EPHEMERIDES TOOLS PHYSICAL DATA DISCOVERY FAQ SITE MAP
JPL Small-Body Database Browser
Search: [ help ]  
324622 (2007 AQ10)
Classification: Main-belt Asteroid          SPK-ID: 2324622
Ephemeris | Orbit Diagram | Orbital Elements | Mission Design | Physical Parameters | Discovery Circumstances | Close-Approach Data ]

[ hide orbit diagram ]

For accurate long-term ephemerides, please instead use our Horizons system.This orbit viewer was implemented using two-body methods, and hence should not be used for determining accurate long-term trajectories (over several years or decades) or planetary encounter circumstances.


[ revert to old Java-based viewer ]

Orbital Elements at Epoch 2459000.5 (2020-May-31.0) TDB
Reference: JPL 12 (heliocentric ecliptic J2000)
 Element Value Uncertainty (1-sigma)   Units 
e .2182519304759176 5.1026e-08  
a 2.720765373958075 2.2121e-08 au
q 2.126953078719693 1.4325e-07 au
i 6.889282745533953 6.8704e-06 deg
node 342.56455161 4.9316e-05 deg
peri 104.1671319098132 5.4477e-05 deg
M 11.03938363513992 1.7572e-05 deg
tp 2458950.233645481305
(2020-Apr-10.73364548)
7.9904e-05 TDB
period 1639.211773484202
4.49
1.9991e-05
5.473e-08
d
yr
n .2196177491056005 2.6783e-09 deg/d
Q 3.314577669196457 2.6948e-08 au
  Orbit Determination Parameters
   # obs. used (total)      235  
   data-arc span      6693 days (18.32 yr)  
   first obs. used      2001-09-28  
   last obs. used      2020-01-25  
   planetary ephem.      DE431  
   SB-pert. ephem.      SB431-N16  
   condition code      0  
   norm. resid. RMS      .55196  
   source      ORB  
   producer      Otto Matic  
   solution date      2020-Feb-25 20:12:21  

Additional Information
 Earth MOID = 1.15567 au 
 Jupiter MOID = 1.95486 au 
 T_jup = 3.314 
[ show covariance matrix ]

Ephemeris | Orbit Diagram | Orbital Elements | Mission Design | Physical Parameters | Discovery Circumstances | Close-Approach Data ]

Physical Parameter Table
Parameter Symbol Value Units Sigma Reference Notes
absolute magnitude H 16.9   n/a MPO503349  

324622 (2007 AQ10)          Discovered 2007-Jan-10 by LINEAR at Socorro
Reference: 20120406/Numbers.arcLast Updated: 2012-04-09

[ hide close-approach data ]
Close-Approach Data   ...sorted by Date/Time (TDB)
Date/Time (TDB) Time Uncertainty
(days_HH:MM)
Body Nominal Distance (au) Minimum Distance (au) Maximum Distance (au) V-relative (km/s) V-infinity (km/s) JD (TDB) Time Uncertainty (minutes) Semi-major axis (km) Semi-minor axis (km) range-LOV angle (deg) N-sigma BP Orbit Ref. Reference Modified
1901-Sep-08 18:24 00:04 Jupiter 1.9604870906235 1.96048645270929 1.96048772853793 2.04415200863879 1.8205668034071 2415636.266499067 4.04206249755421 182.634944719539 36.8474430116274 57.3628843718722 1486960.91630689 T 12 CATAB v2.0f-lin.ifort 2020-Feb-25 20:12:23 2020-Feb-25 20:12
1937-Nov-03 03:16 00:03 Jupiter 1.98412438506024 1.98412353874658 1.98412523137333 2.59560733721543 2.42556748713642 2428840.636316752 2.71463847417972 108.839067985574 18.7077735933797 80.0339587239093 1047392.35893448 T 12 CATAB v2.0f-lin.ifort 2020-Feb-25 20:12:23 2020-Feb-25 20:12
2067-Sep-06 00:43 00:02 Jupiter 1.96003736162761 1.96003677986894 1.96003794338627 2.02282888170769 1.7965367990262 2476264.530151341 1.95117680491364 135.472803389704 32.8680122390844 61.5514785647845 1612059.64335294 T 12 CATAB v2.0f-lin.ifort 2020-Feb-25 20:12:23 2020-Feb-25 20:12
2103-Nov-02 01:44 00:03 Jupiter 1.96120963874684 1.96120881372394 1.96121046376908 2.50255700877045 2.32357827123647 2489469.572354838 3.20859186280473 127.451544421587 18.9374659219965 78.0146437087202 997472.766948524 T 12 CATAB v2.0f-lin.ifort 2020-Feb-25 20:12:23 2020-Feb-25 20:12
Ephemeris | Orbit Diagram | Orbital Elements | Mission Design | Physical Parameters | Discovery Circumstances | Close-Approach Data ]
ABOUT SSD CREDITS/AWARDS PRIVACY/COPYRIGHT GLOSSARY LINKS
FirstGov 2020-Aug-05 02:43 UT
(server date/time)  
NASA Home Page
Site Manager:   Ryan S. Park
Webmaster  Alan B. Chamberlin